1506416400.26,23450,15.19,74662.5,6.45,1.75,1.97,0,*76
1506416401.51,23451,15.19,74656.3,6.47,1.43,1.67,0,*7F
1506416402.73,23452,15.19,74660.5,6.45,1.85,1.97,0,*7B
1506416403.96,23453,15.19,74662.3,6.47,1.79,2.01,0,*77
1506416405.16,23454,15.19,74660.3,6.45,1.63,1.79,0,*75
1506416406.42,23455,15.19,74666.0,6.47,1.89,2.13,0,*7D
1506416407.64,23456,15.19,74660.8,6.45,1.89,2.05,0,*7B
1506416408.86,23457,15.19,74662.8,6.45,2.13,2.25,0,*78
1506416410.11,23458,15.19,74660.0,6.47,1.85,1.97,0,*73
1506416411.33,23459,15.19,74664.3,6.45,1.67,1.89,0,*73
1506416412.56,23460,15.19,74666.0,6.47,1.79,2.01,0,*77
1506416413.78,23461,15.19,74668.3,6.47,1.75,1.89,0,*79
1506416415.0,23462,15.19,74666.3,6.47,1.75,1.89,0,*7A
1506416416.24,23463,15.19,74664.0,6.47,1.67,1.97,0,*77
1506416417.5,23464,15.19,74664.5,6.47,1.21,1.51,0,*78
1506416418.7,23465,15.19,74660.5,6.45,1.05,1.29,0,*72
1506416419.9,23466,15.19,74666.0,6.45,1.41,1.55,0,*7A
1506416421.13,23467,15.19,74662.3,6.45,1.33,1.55,0,*7E
1506416422.36,23468,15.19,74662.5,6.45,1.55,1.67,0,*70
1506416423.58,23469,15.19,74664.5,6.45,1.51,1.55,0,*74
1506416424.8,23470,15.19,74666.3,6.45,1.51,1.55,0,*7C
1506416426.02,23471,15.19,74664.8,6.45,1.51,1.63,0,*78
1506416427.26,23472,15.19,74666.5,6.45,1.97,2.13,0,*75
1506416428.48,23473,15.19,74664.0,6.45,1.97,2.05,0,*73
1506416429.69,23474,15.19,74664.0,6.45,1.55,1.79,0,*72
1506416430.91,23475,15.19,74664.8,6.45,1.89,2.01,0,*7E
1506416432.13,23476,15.19,74662.8,6.45,1.67,1.89,0,*7E
1506416433.35,23477,15.19,74664.0,6.45,1.43,1.55,0,*78
1506416434.56,23478,15.19,74666.3,6.45,1.67,1.89,0,*70
1506416435.78,23479,15.19,74664.5,6.45,1.43,1.63,0,*73
1506416437.0,23480,15.19,74666.3,6.45,1.43,1.63,0,*75
1506416438.2,23481,15.19,74664.5,6.45,1.67,1.79,0,*79
1506416439.43,23482,15.19,74664.0,6.45,1.55,1.63,0,*70
1506416440.62,23483,15.19,74666.0,6.45,0.95,1.05,0,*4C
1506416441.81,23484,15.19,74660.8,6.45,0.83,1.01,0,*48
1506416443.05,23485,15.19,74662.0,6.43,0.67,0.79,0,*7B
1506416444.3,23486,15.19,74660.8,6.43,1.47,1.63,0,*71
1506416445.52,23487,15.19,74658.8,6.41,1.47,1.63,0,*72
1506416446.75,23488,15.19,74664.0,6.43,1.63,1.83,0,*77
1506416448.0,23489,15.19,74660.8,6.43,1.47,1.63,0,*7E
1506416449.22,23490,15.19,74664.0,6.43,0.87,1.01,0,*4F
1506416450.45,23491,15.19,74666.8,6.41,1.29,1.47,0,*7B
1506416451.69,23492,15.19,74662.5,6.41,1.09,1.13,0,*7B
1506416452.92,23493,15.19,74664.3,6.41,1.09,1.25,0,*7F
1506416454.15,23494,15.19,74666.3,6.41,1.37,1.51,0,*76
1506416455.38,23495,15.19,74660.8,6.39,0.95,1.05,0,*40
1506416456.63,23496,15.19,74658.8,6.39,1.09,1.25,0,*75
1506416457.87,23497,15.19,74662.5,6.39,1.55,1.79,0,*74
1506416459.13,23498,15.19,74662.5,6.39,1.25,1.37,0,*76
1506416460.36,23499,15.19,74656.5,6.39,0.97,1.13,0,*49
1506416461.61,23500,15.19,74662.8,6.39,1.37,1.47,0,*72
1506416462.86,23501,15.19,74660.8,6.39,1.43,1.59,0,*7F
1506416464.11,23502,15.19,74662.3,6.39,1.71,1.89,0,*70
1506416465.37,23503,15.19,74662.5,6.39,1.37,1.47,0,*71
1506416466.59,23504,15.19,74660.5,6.37,0.91,0.95,0,*7B
1506416467.81,23505,15.19,74658.0,6.37,1.47,1.55,0,*7D
1506416469.07,23506,15.19,74656.3,6.39,1.21,1.37,0,*74
1506416470.28,23507,15.19,74658.8,6.37,1.01,1.17,0,*7B
1506416471.48,23508,15.19,74656.3,6.37,1.55,1.79,0,*7D
1506416472.68,23509,15.19,74658.0,6.37,1.67,1.75,0,*71
1506416473.93,23510,15.19,74660.0,6.39,1.67,1.71,0,*73
1506416475.15,23511,15.19,74662.5,6.39,1.79,1.89,0,*7A
1506416476.41,23512,15.19,74658.3,6.39,2.05,2.17,0,*75
1506416477.67,23513,15.19,74658.3,6.39,2.05,2.17,0,*74
1506416478.92,23514,15.19,74660.3,6.39,1.67,1.71,0,*77
1506416480.18,23515,15.19,74662.3,6.39,2.05,2.17,0,*72
1506416481.41,23516,15.19,74658.5,6.39,2.09,2.27,0,*7E
1506416482.6,23517,15.19,74660.5,6.41,1.83,1.97,0,*79
1506416483.8,23518,15.19,74656.8,6.41,1.75,1.93,0,*7B
1506416485.03,23519,15.19,74660.5,6.41,1.85,1.97,0,*71
1506416486.24,23520,15.19,74656.8,6.41,2.25,2.35,0,*79
1506416487.46,23521,15.19,74662.5,6.41,2.01,2.21,0,*7B
1506416488.71,23522,15.19,74660.0,6.43,2.13,2.25,0,*7D
1506416489.97,23523,15.19,74656.5,6.43,2.09,2.25,0,*77
1506416491.22,23524,15.19,74660.8,6.43,1.85,1.93,0,*79
1506416492.47,23525,15.19,74662.3,6.43,1.93,2.01,0,*77
1506416493.7,23526,15.19,74662.0,6.43,1.71,1.75,0,*78
1506416494.93,23527,15.19,74660.0,6.41,1.97,2.01,0,*73
1506416496.18,23528,15.19,74658.8,6.43,1.71,1.93,0,*7E
1506416497.38,23529,15.19,74658.0,6.41,1.75,1.93,0,*79
1506416498.61,23530,15.19,74660.5,6.45,2.13,2.25,0,*78
1506416499.81,23531,15.19,74660.5,6.45,2.17,2.27,0,*7F
1506416501.04,23532,15.19,74660.8,6.45,1.85,2.01,0,*70
1506416502.27,23533,15.19,74660.5,6.45,1.67,1.85,0,*72
1506416503.46,23534,15.19,74660.3,6.45,1.79,1.97,0,*79
1506416504.72,23535,15.19,74658.8,6.47,1.63,1.85,0,*72
1506416505.92,23536,15.19,74660.5,6.45,1.55,1.75,0,*79
1506416507.16,23537,15.19,74660.5,6.45,1.17,1.33,0,*7C
1506416508.39,23538,15.19,74656.0,6.45,1.33,1.51,0,*71
1506416509.63,23539,15.19,74660.3,6.43,1.51,1.59,0,*7A
1506416510.88,23540,15.19,74662.0,6.43,1.51,1.71,0,*7E
1506416512.14,23541,15.19,74662.5,6.43,1.17,1.29,0,*70
1506416513.33,23542,15.19,74662.3,6.41,0.79,0.97,0,*7C
1506416514.55,23543,15.19,74660.0,6.41,0.55,0.79,0,*73
1506416515.75,23544,15.19,74666.8,6.41,1.25,1.41,0,*78
1506416516.95,23545,15.19,74662.5,6.41,1.83,1.93,0,*7A
1506416518.2,23546,15.19,74662.8,6.39,2.05,2.09,0,*7B
1506416519.45,23547,15.19,74664.0,6.39,1.71,1.89,0,*71
1506416520.7,23548,15.19,74660.5,6.39,1.55,1.59,0,*75
1506416521.96,23549,15.19,74660.0,6.39,1.21,1.43,0,*7C
1506416523.19,23550,15.19,74662.8,6.39,1.59,1.83,0,*77
1506416524.42,23551,15.19,74662.5,6.39,1.67,1.83,0,*7B
1506416525.67,23552,15.19,74656.0,6.39,1.55,1.59,0,*7E
1506416526.9,23553,15.19,74656.8,6.39,0.97,1.13,0,*4E
1506416528.11,23554,15.19,74658.3,6.37,1.05,1.21,0,*7C
1506416529.3,23555,15.19,74658.5,6.37,1.17,1.41,0,*78
1506416530.51,23556,15.19,74656.8,6.37,1.21,1.41,0,*7E
1506416531.71,23557,15.19,74658.5,6.37,1.21,1.41,0,*7F
1506416532.91,23558,15.19,74658.3,6.37,1.17,1.41,0,*75
1506416534.11,23559,15.19,74656.3,6.37,1.29,1.41,0,*79
1506416535.32,23560,15.19,74660.3,6.37,0.83,0.95,0,*7A
1506416536.52,23561,15.19,74662.5,6.35,-0.03,-0.07,0,*7A
1506416537.71,23562,15.19,74660.8,6.31,0.01,0.01,0,*79
1506416538.93,23563,15.19,74662.3,6.31,-0.29,-0.23,0,*72
1506416540.16,23564,15.19,74660.0,6.27,0.87,0.97,0,*79
1506416541.38,23565,15.19,74660.0,6.27,0.83,1.01,0,*42
1506416542.63,23566,15.19,74656.3,6.27,0.71,0.87,0,*73
1506416543.87,23567,15.19,74658.5,6.27,0.75,0.95,0,*75
1506416545.09,23568,15.19,74658.5,6.25,1.05,1.21,0,*70
1506416546.33,23569,15.19,74658.3,6.25,1.09,1.21,0,*7D
1506416547.57,23570,15.19,74658.3,6.25,1.33,1.55,0,*7F
1506416548.8,23571,15.19,74658.8,6.25,1.43,1.55,0,*79
1506416550.02,23572,15.19,74660.3,6.25,1.05,1.17,0,*7E
1506416551.22,23573,15.19,74660.8,6.25,1.41,1.63,0,*7C
1506416552.43,23574,15.19,74662.0,6.25,1.63,1.79,0,*70
1506416553.64,23575,15.19,74664.5,6.25,1.75,1.89,0,*79
1506416554.89,23576,15.19,74660.0,6.23,1.43,1.55,0,*78
1506416556.16,23577,15.19,74660.5,6.27,1.37,1.47,0,*7D
1506416557.41,23578,15.19,74662.8,6.27,1.59,1.71,0,*7F
1506416558.62,23579,15.19,74660.5,6.25,1.55,1.79,0,*78
1506416559.86,23580,15.19,74660.0,6.25,1.89,2.05,0,*77
1506416561.12,23581,15.19,74658.3,6.27,1.93,2.05,0,*7F
1506416562.38,23582,15.19,74656.8,6.27,1.37,1.59,0,*78
1506416563.63,23583,15.19,74656.0,6.27,1.25,1.43,0,*71
1506416564.87,23584,15.19,74658.3,6.27,1.59,1.83,0,*71
1506416566.1,23585,15.19,74656.0,6.27,1.67,1.79,0,*78
1506416567.3,23586,15.19,74656.3,6.29,1.67,1.79,0,*75
1506416568.52,23587,15.19,74658.5,6.25,1.63,1.79,0,*7C
1506416569.77,23588,15.19,74658.0,6.27,1.43,1.67,0,*7C
1506416570.99,23589,15.19,74654.0,6.29,1.43,1.55,0,*72
1506416572.23,23590,15.19,74658.3,6.27,1.67,1.83,0,*79
1506416573.46,23591,15.19,74658.0,6.27,1.67,1.79,0,*7D
1506416574.66,23592,15.19,74660.5,6.29,1.83,1.93,0,*7E
1506416575.86,23593,15.19,74660.5,6.29,1.59,1.79,0,*7C
1506416577.12,23594,15.19,74662.3,6.27,1.67,1.85,0,*7B
1506416578.38,23595,15.19,74660.0,6.31,1.97,2.01,0,*7D
1506416579.6,23596,15.19,74662.8,6.27,0.95,0.97,0,*77
1506416580.84,23597,15.19,74662.5,6.27,0.59,0.71,0,*7E
1506416582.08,23598,15.19,74660.8,6.27,1.01,1.09,0,*73
1506416583.31,23599,15.19,74660.0,6.29,1.09,1.25,0,*7A
1506416584.58,23600,15.19,74666.3,6.27,1.37,1.37,0,*79
1506416585.85,23601,15.19,74662.5,6.27,1.21,1.33,0,*7B
1506416587.12,23602,15.19,74662.0,6.27,1.09,1.21,0,*71
1506416588.35,23603,15.19,74660.3,6.29,1.33,1.43,0,*73
1506416589.62,23604,15.19,74660.8,6.27,1.33,1.43,0,*7A
1506416590.86,23605,15.19,74660.0,6.25,1.33,1.55,0,*7E
1506416592.09,23606,15.19,74658.0,6.25,1.93,2.05,0,*71
1506416593.33,23607,15.19,74656.3,6.25,2.05,2.25,0,*7E
1506416594.56,23608,15.19,74658.3,6.27,1.59,1.79,0,*73
1506416595.8,23609,15.19,74658.3,6.29,1.09,1.33,0,*77
1506416597.03,23610,15.19,74658.8,6.27,1.83,2.09,0,*79
1506416598.29,23611,15.19,74658.0,6.27,1.93,2.05,0,*75
1506416599.49,23612,15.19,74656.0,6.29,1.79,1.97,0,*74
1506416600.75,23613,15.19,74656.8,6.27,1.85,2.05,0,*70
1506416601.99,23614,15.19,74658.0,6.29,1.97,2.09,0,*76
1506416603.19,23615,15.19,74660.0,6.29,1.79,1.97,0,*73
1506416604.42,23616,15.19,74664.3,6.29,1.85,2.09,0,*77
1506416605.62,23617,15.19,74662.8,6.29,1.83,2.09,0,*70
1506416606.84,23618,15.19,74660.0,6.29,1.43,1.71,0,*7F
1506416608.07,23619,15.19,74660.3,6.29,1.43,1.59,0,*74
1506416609.29,23620,15.19,74662.8,6.29,1.47,1.67,0,*77
1506416610.52,23621,15.19,74662.3,6.31,1.63,1.83,0,*73
1506416611.74,23622,15.19,74662.0,6.31,1.75,1.89,0,*7D
1506416612.97,23623,15.19,74664.3,6.31,1.59,1.83,0,*78
1506416614.2,23624,15.19,74660.8,6.31,1.41,1.51,0,*79
1506416615.43,23625,15.19,74660.8,6.31,1.59,1.75,0,*77
1506416616.68,23626,15.19,74662.8,6.31,1.51,1.71,0,*78
1506416617.93,23627,15.19,74662.8,6.31,1.59,1.71,0,*71
1506416619.18,23628,15.19,74664.5,6.31,1.47,1.47,0,*74
1506416620.4,23629,15.19,74662.8,6.31,0.91,0.97,0,*73
1506416621.6,23630,15.19,74658.5,6.31,0.97,1.05,0,*47
1506416622.86,23631,15.19,74656.5,6.31,1.13,1.29,0,*75
1506416624.09,23632,15.19,74656.5,6.29,1.43,1.55,0,*71
1506416625.32,23633,15.19,74658.5,6.29,1.55,1.71,0,*71
1506416626.54,23634,15.19,74660.3,6.29,1.93,1.93,0,*70
1506416627.77,23635,15.19,74656.8,6.29,2.05,2.09,0,*7D
1506416628.98,23636,15.19,74658.8,6.29,2.17,2.27,0,*71
1506416630.2,23637,15.19,74660.3,6.29,1.93,1.93,0,*73
1506416631.46,23638,15.19,74656.8,6.27,1.93,2.05,0,*7E
1506416632.66,23639,15.19,74656.8,6.29,1.67,1.79,0,*72
1506416633.88,23640,15.19,74658.0,6.27,1.79,1.79,0,*7D
1506416635.11,23641,15.19,74654.8,6.29,1.43,1.37,0,*71
1506416636.36,23642,15.19,74654.5,6.27,1.43,1.47,0,*7B
1506416637.62,23643,15.19,74654.8,6.27,1.09,1.13,0,*75
1506416638.87,23644,15.19,74654.3,6.27,0.87,0.83,0,*7D
1506416640.08,23645,15.19,74654.3,6.27,0.97,1.01,0,*46
1506416641.35,23646,15.19,74652.5,6.27,1.13,1.21,0,*7A
1506416642.57,23647,15.19,74652.0,6.25,0.71,0.79,0,*70
1506416643.79,23648,15.19,74654.3,6.23,0.83,0.97,0,*74
1506416645.06,23649,15.19,74658.0,6.23,1.09,1.21,0,*7A
1506416646.27,23650,15.19,74658.5,6.21,1.51,1.79,0,*70
1506416647.46,23651,15.19,74656.3,6.21,1.75,1.89,0,*78
1506416648.73,23652,15.19,74656.0,6.23,2.01,2.13,0,*79
1506416649.98,23653,15.19,74660.0,6.23,1.93,2.01,0,*73
1506416651.2,23654,15.13,74658.0,6.25,1.63,1.79,0,*71
1506416652.43,23655,15.19,74660.0,6.23,1.51,1.75,0,*7B
1506416653.67,23656,15.19,74658.5,6.23,1.55,1.75,0,*7C
1506416654.9,23657,15.19,74660.3,6.23,1.79,1.89,0,*70
1506416656.16,23658,15.19,74656.5,6.23,1.55,1.63,0,*75
1506416657.4,23659,15.19,74662.0,6.23,1.55,1.75,0,*73
1506416658.6,23660,15.19,74660.5,6.21,1.75,1.97,0,*75
1506416659.8,23661,15.19,74658.3,6.21,1.79,2.01,0,*74
1506416661.03,23662,15.13,74652.8,6.21,2.09,2.25,0,*75
1506416662.26,23663,15.19,74658.3,6.23,2.25,2.35,0,*79
1506416663.5,23664,15.19,74658.5,6.25,1.93,2.01,0,*71
1506416664.69,23665,15.19,74658.5,6.25,1.79,1.83,0,*7D
1506416665.93,23666,15.19,74654.5,6.23,1.89,1.89,0,*7D
1506416667.19,23667,15.19,74654.8,6.23,2.13,2.25,0,*79
1506416668.45,23668,15.19,74658.0,6.23,1.93,2.05,0,*7F
1506416669.71,23669,15.19,74660.0,6.23,2.05,2.13,0,*75
1506416670.97,23670,15.19,74656.0,6.23,2.05,2.05,0,*7A
1506416672.2,23671,15.19,74654.8,6.25,2.25,2.47,0,*79
1506416673.41,23672,15.19,74656.5,6.25,1.83,1.89,0,*74
1506416674.62,23673,15.19,74658.5,6.25,1.63,1.79,0,*74
1506416675.87,23674,15.19,74658.3,6.23,1.51,1.63,0,*7F
1506416677.11,23675,15.19,74660.8,6.23,1.67,1.75,0,*7C
1506416678.34,23676,15.19,74658.0,6.23,1.63,1.79,0,*77
1506416679.58,23677,15.13,74658.8,6.23,1.63,1.75,0,*7A
1506416680.84,23678,15.19,74658.8,6.23,1.29,1.33,0,*79
1506416682.07,23679,15.19,74658.3,6.21,1.59,1.71,0,*7B
1506416683.29,23680,15.19,74656.3,6.21,1.63,1.71,0,*74
1506416684.49,23681,15.19,74658.3,6.19,1.79,1.89,0,*72
1506416685.67,23682,15.19,74656.5,6.21,2.31,2.35,0,*71
1506416686.88,23683,15.19,74656.0,6.21,2.31,2.47,0,*75
1506416688.08,23684,15.19,74656.0,6.21,2.13,2.31,0,*73
1506416689.27,23685,15.19,74658.5,6.21,2.21,2.35,0,*77
1506416690.51,23686,15.19,74656.0,6.21,2.43,2.47,0,*75
1506416691.71,23687,15.19,74658.3,6.21,2.35,2.59,0,*7A
1506416692.92,23688,15.19,74658.0,6.23,2.35,2.35,0,*7D
1506416694.14,23689,15.13,74654.3,6.23,1.83,1.93,0,*7D
1506416695.41,23690,15.13,74652.0,6.23,2.17,2.25,0,*75
1506416696.67,23691,15.13,74656.3,6.23,2.01,2.13,0,*76
1506416697.9,23692,15.13,74654.0,6.23,2.25,2.35,0,*77
1506416699.16,23693,15.19,74658.8,6.23,1.89,2.13,0,*77
1506416700.39,23694,15.13,74656.5,6.23,1.83,2.01,0,*79
1506416701.65,23695,15.13,74654.5,6.23,1.55,1.67,0,*70
1506416702.86,23696,15.19,74658.8,6.21,1.71,1.75,0,*74
1506416704.06,23697,15.13,74658.0,6.21,1.75,1.89,0,*72
1506416705.27,23698,15.13,74654.5,6.19,1.71,1.79,0,*7D
1506416706.49,23699,15.19,74658.3,6.21,1.51,1.63,0,*7E
1506416707.72,23700,15.13,74656.3,6.21,1.89,2.01,0,*7D
1506416708.92,23701,15.19,74658.3,6.21,1.79,1.89,0,*70
1506416710.13,23702,15.13,74656.5,6.21,1.63,1.79,0,*77
1506416711.35,23703,15.19,74656.8,6.21,2.09,2.21,0,*77
1506416712.59,23704,15.19,74660.8,6.19,2.01,2.13,0,*72
1506416713.82,23705,15.13,74658.8,6.21,1.97,2.13,0,*74
1506416715.03,23706,15.13,74658.8,6.21,2.25,2.35,0,*79
1506416716.27,23707,15.13,74656.8,6.23,2.47,2.61,0,*7F
1506416717.5,23708,15.13,74658.5,6.23,2.35,2.55,0,*72
1506416718.73,23709,15.19,74658.5,6.23,2.13,2.35,0,*71
1506416719.94,23710,15.13,74658.8,6.25,1.79,2.05,0,*73
1506416721.21,23711,15.19,74660.8,6.23,2.17,2.39,0,*70
1506416722.45,23712,15.19,74660.0,6.25,2.39,2.55,0,*73
1506416723.66,23713,15.19,74660.3,6.25,2.51,2.61,0,*7B
1506416724.87,23714,15.19,74658.8,6.25,2.35,2.39,0,*73
1506416726.08,23715,15.13,74658.5,6.25,1.83,1.93,0,*7F
1506416727.31,23716,15.19,74658.3,6.25,2.05,2.25,0,*7F
1506416728.5,23717,15.13,74660.0,6.25,1.75,1.83,0,*75
1506416729.73,23718,15.19,74662.3,6.23,1.83,2.01,0,*7C
1506416730.94,23719,15.13,74660.0,6.25,1.83,2.01,0,*7B
1506416732.18,23720,15.19,74666.3,6.23,1.55,1.75,0,*7C
1506416733.43,23721,15.13,74660.3,6.25,1.29,1.09,0,*7B
1506416734.65,23722,15.19,74658.8,6.25,0.37,0.55,0,*7E
1506416735.85,23723,15.13,74658.3,6.23,-0.03,0.05,0,*56
1506416737.07,23724,15.19,74662.5,6.21,0.75,0.91,0,*72
1506416738.29,23725,15.13,74662.5,6.19,0.67,0.87,0,*7C
1506416739.51,23726,15.19,74662.0,6.19,0.95,1.17,0,*4A
1506416740.76,23727,15.19,74662.0,6.17,0.29,0.41,0,*70
1506416741.97,23728,15.13,74660.0,6.15,0.37,0.55,0,*77
1506416743.19,23729,15.19,74662.8,6.15,0.59,0.67,0,*7F
1506416744.43,23730,15.13,74660.0,6.15,1.09,1.33,0,*73
1506416745.69,23731,15.19,74662.5,6.13,1.21,1.33,0,*7E
1506416746.91,23732,15.13,74660.5,6.15,1.71,1.89,0,*7F
1506416748.12,23733,15.13,74662.0,6.15,1.67,1.83,0,*73
1506416749.33,23734,15.13,74660.0,6.15,1.63,1.79,0,*75
1506416750.52,23735,15.19,74666.5,6.15,0.83,0.97,0,*7A
1506416751.74,23736,15.13,74660.8,6.09,0.43,0.55,0,*76
1506416752.98,23737,15.13,74660.3,6.13,0.67,0.87,0,*75
1506416754.21,23738,15.13,74662.3,6.09,1.01,1.17,0,*78
1506416755.48,23739,15.19,74660.5,6.09,1.17,1.37,0,*7C
1506416756.75,23740,15.13,74658.5,6.09,1.17,1.37,0,*72
1506416758.02,23741,15.13,74660.5,6.09,1.17,1.37,0,*73
1506416759.25,23742,15.13,74662.0,6.09,1.13,1.41,0,*75
1506416760.49,23743,15.13,74660.3,6.09,1.05,1.25,0,*71
1506416761.75,23744,15.19,74666.8,6.09,1.67,1.85,0,*78
1506416763.01,23745,15.13,74660.3,6.09,1.67,1.85,0,*79
1506416764.26,23746,15.13,74660.8,6.09,1.67,1.89,0,*76
1506416765.52,23747,15.19,74666.3,6.09,1.47,1.63,0,*71
1506416766.75,23748,15.13,74664.0,6.09,1.59,1.79,0,*7A
1506416768.01,23749,15.13,74660.5,6.09,2.09,2.25,0,*77
1506416769.24,23750,15.13,74664.0,6.13,1.51,1.79,0,*70
1506416770.5,23751,15.13,74666.5,6.09,1.47,1.63,0,*76
1506416771.75,23752,15.13,74668.3,6.13,1.55,1.71,0,*7E
1506416772.98,23753,15.13,74666.5,6.13,1.83,1.93,0,*78
1506416774.21,23754,15.13,74662.5,6.09,1.79,1.97,0,*75
1506416775.44,23755,15.13,74664.8,6.13,1.29,1.41,0,*71
1506416776.71,23756,15.19,74664.3,6.09,1.13,1.29,0,*7E
1506416777.97,23757,15.13,74660.8,6.09,1.85,2.01,0,*79
1506416779.23,23758,15.13,74660.3,6.13,2.01,2.17,0,*75
1506416780.49,23759,15.19,74666.8,6.13,2.01,2.17,0,*74
1506416781.74,23760,15.19,74662.0,6.13,2.13,2.39,0,*71
1506416782.97,23761,15.13,74662.5,6.13,2.25,2.35,0,*79
1506416784.17,23762,15.13,74664.0,6.15,1.83,2.05,0,*70
1506416785.41,23763,15.19,74664.0,6.15,2.05,2.17,0,*7F
1506416786.67,23764,15.13,74660.8,6.17,2.09,2.39,0,*7A
1506416787.9,23765,15.13,74660.8,6.17,1.75,1.97,0,*74
1506416789.13,23766,15.13,74664.8,6.17,1.55,1.75,0,*79
1506416790.4,23767,15.13,74662.3,6.17,2.17,2.39,0,*76
1506416791.63,23768,15.13,74662.0,6.17,2.31,2.43,0,*70
1506416792.84,23769,15.13,74666.0,6.19,2.13,2.35,0,*7E
1506416794.07,23770,15.13,74660.8,6.19,1.85,1.89,0,*7E
1506416795.29,23771,15.13,74662.0,6.19,1.79,1.85,0,*70
1506416796.53,23772,15.13,74660.0,6.19,1.29,1.29,0,*70
1506416797.74,23773,15.13,74658.5,6.19,1.29,1.41,0,*7F
1506416798.94,23774,15.13,74658.8,6.17,0.97,1.01,0,*46
1506416800.13,23775,15.13,74662.5,6.15,0.83,0.97,0,*7E
1506416801.32,23776,15.13,74662.3,6.15,0.37,0.43,0,*7B
1506416802.53,23777,15.13,74660.3,6.15,0.87,1.05,0,*42
1506416803.76,23778,15.13,74660.5,6.15,1.17,1.29,0,*7B
1506416804.99,23779,15.13,74662.0,6.13,1.63,1.75,0,*76
1506416806.22,23780,15.19,74666.0,6.13,1.83,1.93,0,*76
1506416807.47,23781,15.19,74666.5,6.13,2.05,2.17,0,*75
1506416808.71,23782,15.19,74664.0,6.13,2.17,2.27,0,*76
1506416809.95,23783,15.19,74666.8,6.15,1.29,1.33,0,*79
1506416811.21,23784,15.13,74666.0,6.09,1.29,1.47,0,*70
1506416812.46,23785,15.13,74660.0,6.13,1.51,1.63,0,*73
1506416813.69,23786,15.13,74660.5,6.13,1.83,2.01,0,*78
1506416814.94,23787,15.19,74662.8,6.13,1.93,2.01,0,*78
1506416816.19,23788,15.19,74664.3,6.13,1.51,1.67,0,*7A
1506416817.44,23789,15.13,74660.5,6.13,1.51,1.63,0,*7F
1506416818.7,23790,15.13,74660.3,6.13,1.21,1.43,0,*72
1506416819.94,23791,15.13,74666.3,6.13,1.51,1.71,0,*75
1506416821.18,23792,15.13,74660.5,6.09,1.51,1.75,0,*79
1506416822.41,23793,15.13,74664.0,6.13,1.67,1.79,0,*7A
1506416823.67,23794,15.19,74666.0,6.13,1.09,1.21,0,*78
1506416824.9,23795,15.13,74658.8,6.13,1.63,1.79,0,*78
1506416826.13,23796,15.13,74660.3,6.13,1.67,1.79,0,*7F
1506416827.35,23797,15.13,74662.0,6.13,1.83,1.89,0,*7B
1506416828.61,23798,15.13,74660.0,6.13,1.29,1.29,0,*7E
1506416829.81,23799,15.13,74662.3,6.13,1.79,1.83,0,*7A
1506416831.04,23800,15.19,74664.8,6.13,1.79,1.93,0,*74
1506416832.27,23801,15.13,74666.8,6.13,1.67,1.79,0,*7E
1506416833.52,23802,15.13,74666.8,6.13,1.67,1.71,0,*75
1506416834.76,23803,15.13,74662.3,6.09,1.75,1.85,0,*77
1506416836.02,23804,15.19,74666.3,6.13,2.17,2.25,0,*75
1506416837.22,23805,15.13,74666.8,6.13,1.83,1.83,0,*75
1506416838.44,23806,15.13,74662.0,6.13,1.83,1.89,0,*7C
1506416839.66,23807,15.19,74664.5,6.13,1.79,1.89,0,*78
1506416840.91,23808,15.13,74660.8,6.13,1.63,1.71,0,*7B
1506416842.17,23809,15.13,74662.8,6.13,1.55,1.63,0,*7C
1506416843.42,23810,15.19,74664.8,6.13,1.89,2.05,0,*76
1506416844.69,23811,15.19,74666.3,6.09,1.97,2.13,0,*74
1506416845.94,23812,15.13,74666.0,6.13,1.93,2.17,0,*7C
1506416847.2,23813,15.13,74664.0,6.13,1.93,2.17,0,*7D
1506416848.43,23814,15.13,74664.8,6.13,2.05,2.27,0,*75
1506416849.65,23815,15.13,74664.3,6.13,2.05,2.35,0,*77
1506416850.86,23816,15.13,74668.3,6.15,2.01,2.27,0,*75
1506416852.08,23817,15.13,74666.0,6.15,1.89,2.05,0,*77
1506416853.31,23818,15.13,74664.0,6.13,2.05,2.35,0,*7A
1506416854.55,23819,15.13,74662.8,6.13,1.55,1.83,0,*73
1506416855.75,23820,15.13,74666.8,6.15,2.01,2.27,0,*70
1506416856.99,23821,15.13,74662.8,6.15,2.01,2.17,0,*72
1506416858.24,23822,15.13,74664.3,6.17,2.05,2.21,0,*72
1506416859.5,23823,15.13,74666.5,6.17,2.17,2.21,0,*70
1506416860.73,23824,15.13,74664.8,6.17,2.17,2.27,0,*71
1506416862.0,23825,15.13,74660.0,6.17,1.97,2.09,0,*77
1506416863.23,23826,15.13,74662.5,6.19,1.71,1.85,0,*75
1506416864.47,23827,15.13,74664.3,6.19,1.85,1.97,0,*7C
1506416865.7,23828,15.13,74662.3,6.17,1.71,1.83,0,*73
1506416866.96,23829,15.13,74664.0,6.17,2.05,2.17,0,*7C
1506416868.2,23830,15.13,74670.0,6.17,2.47,2.65,0,*77
1506416869.43,23831,15.19,74668.8,6.17,2.31,2.55,0,*74
1506416870.66,23832,15.13,74666.3,6.17,2.09,2.31,0,*7E
1506416871.9,23833,15.13,74666.5,6.21,2.43,2.51,0,*72
1506416873.13,23834,15.13,74666.3,6.19,1.85,2.01,0,*72
1506416874.34,23835,15.13,74666.8,6.19,2.13,2.31,0,*7C
1506416875.54,23836,15.13,74664.0,6.21,2.25,2.35,0,*75
1506416876.74,23837,15.13,74660.8,6.21,1.75,1.89,0,*76
1506416877.97,23838,15.13,74664.8,6.19,2.09,2.21,0,*7B
1506416879.19,23839,15.19,74666.3,6.19,2.47,2.61,0,*74
1506416880.41,23840,15.13,74662.8,6.21,1.97,1.97,0,*75
1506416881.64,23841,15.13,74662.0,6.21,2.25,2.43,0,*74
1506416882.86,23842,15.13,74666.8,6.21,2.51,2.61,0,*74
1506416884.09,23843,15.13,74664.0,6.21,1.71,2.01,0,*72
1506416885.31,23844,15.13,74666.8,6.21,1.89,2.09,0,*7A
1506416886.54,23845,15.13,74664.5,6.21,2.09,2.25,0,*7E
1506416887.74,23846,15.13,74668.0,6.21,2.13,2.35,0,*77
1506416888.95,23847,15.13,74668.0,6.21,2.31,2.51,0,*74
1506416890.18,23848,15.13,74666.3,6.21,1.89,2.09,0,*76
1506416891.41,23849,15.13,74670.5,6.21,2.09,2.21,0,*76
1506416892.62,23850,15.13,74662.3,6.25,1.79,1.93,0,*74
1506416893.87,23851,15.13,74664.3,6.23,1.93,2.25,0,*79
1506416895.11,23852,15.13,74666.8,6.25,2.13,2.25,0,*77
1506416896.37,23853,15.13,74660.0,6.23,2.05,2.13,0,*72
1506416897.56,23854,15.19,74666.3,6.25,1.75,1.79,0,*78
1506416898.74,23855,15.13,74666.3,6.25,1.75,1.83,0,*7C
1506416900.0,23856,15.13,74662.3,6.23,1.55,1.67,0,*71
1506416901.22,23857,15.13,74658.8,6.23,1.75,1.75,0,*71
1506416902.44,23858,15.13,74660.0,6.21,2.09,2.01,0,*74
1506416903.68,23859,15.13,74662.8,6.21,2.09,2.13,0,*76
1506416904.94,23860,15.13,74662.5,6.23,1.93,2.13,0,*7E
1506416906.17,23861,15.13,74664.3,6.25,1.93,2.01,0,*7A
1506416907.42,23862,15.13,74664.8,6.23,1.89,1.93,0,*7C
1506416908.69,23863,15.13,74664.3,6.23,2.05,2.13,0,*71
1506416909.94,23864,15.13,74664.5,6.23,1.89,2.05,0,*76
1506416911.2,23865,15.13,74666.3,6.23,1.93,2.05,0,*7C
1506416912.41,23866,15.13,74666.8,6.23,1.79,1.83,0,*76
1506416913.67,23867,15.13,74662.0,6.23,2.01,2.13,0,*71
1506416914.91,23868,15.13,74664.0,6.25,2.13,2.25,0,*7E
1506416916.17,23869,15.13,74660.0,6.23,2.39,2.51,0,*72
1506416917.44,23870,15.13,74660.0,6.23,2.17,2.13,0,*70
1506416918.71,23871,15.13,74664.3,6.23,2.01,2.13,0,*76
1506416919.94,23872,15.13,74666.0,6.23,2.17,2.35,0,*76
1506416921.18,23873,15.13,74664.8,6.23,2.17,2.27,0,*74
1506416922.44,23874,15.13,74658.8,6.23,2.25,2.39,0,*7D
1506416923.65,23875,15.13,74662.8,6.25,2.35,2.51,0,*75
1506416924.86,23876,15.13,74660.8,6.25,2.25,2.35,0,*75
1506416926.07,23877,15.19,74664.3,6.23,2.27,2.35,0,*70
1506416927.28,23878,15.13,74662.3,6.25,2.17,2.27,0,*79
1506416928.53,23879,15.13,74664.0,6.25,2.17,2.25,0,*7A
1506416929.78,23880,15.13,74662.8,6.23,2.13,2.25,0,*7E
1506416931.0,23881,15.13,74662.8,6.25,2.35,2.51,0,*7E
1506416932.24,23882,15.13,74660.3,6.25,2.39,2.51,0,*71
1506416933.48,23883,15.13,74660.8,6.25,2.17,2.25,0,*7F
1506416934.74,23884,15.13,74660.5,6.27,1.93,2.09,0,*7B
1506416936.01,23885,15.13,74660.0,6.27,1.97,2.17,0,*71
1506416937.25,23886,15.13,74660.8,6.27,1.55,1.79,0,*77